Flag Weather past 2 weeks in San Luis Potosi, San Luis Potosí, Mexico

Now
50 °F

Fog.


Feels Like: 50 °F
Forecast: 51 / 74 °F
Wind: No wind

Location: San Luis Potosi - S. L. P.

Current Time: Nov 22, 2014 at 8:50:49 AM

Latest Report: Nov 22, 2014 at 7:09 AM


Visibility: 0 mi

Pressure: 30.21 "Hg

Humidity: 94%

Dew point: 48 °F

Location of San Luis PotosiLocation

Historic Weather in San Luis Potosi — Graph

°F

San Luis Potosi temperature yesterday

Maximum temperature yesterday: 68 °F (at 12:45 PM)
Minimum temperature yesterday: 45 °F (at 6:45 AM)
Average temperature yesterday: 54 °F

Past Weeks' High & Low Weather Summary

 TemperatureHumidityPressure
High77 °F (Nov 16, 3:45 PM)100% (Nov 10, 7:46 AM)30.43 "Hg (Nov 10, 7:46 AM)
Low37 °F (Nov 18, 3:51 AM)15% (Nov 17, 4:46 PM)29.68 "Hg (Nov 11, 2:50 AM)
Average53 °F80%30.17 "Hg
* Reported Nov 7 7:46 AM — Nov 22 7:09 AM, San Luis Potosi, Weather by CustomWeather, © 2014

Note: Actual official high and low records may vary slightly from our data, if they occured in-between our weather recording intervals... More about our weather records

Advertising

San Luis Potosi weather history for previous 24 hours

 ConditionsComfort  
Time TempWeatherWind HumidityBarometerVisibility
7:09 AM
Nov 22
50 °FFog.No wind94%30.21 "Hg0 mi
6:51 AM50 °FFog.6 mph94%30.21 "Hg2 mi
5:49 AM52 °FPassing clouds.7 mph94%29.91 "Hg5 mi
5:09 AM52 °FPassing clouds.No wind94%30.20 "Hg5 mi
3:45 AM54 °FPassing clouds.No wind94%30.21 "Hg5 mi
2:48 AM55 °FPassing clouds.No wind88%29.85 "Hg6 mi
10:45 PM
Nov 21
54 °FMostly cloudy.6 mph88%30.24 "Hg7 mi
9:51 PM54 °FPassing clouds.No wind88%30.24 "Hg8 mi
8:46 PM54 °FPassing clouds.No wind94%29.96 "Hg8 mi
7:45 PM55 °FPartly cloudy.5 mph88%30.23 "Hg10 mi
6:45 PM57 °FPartly cloudy.5 mph72%30.18 "Hg10 mi
4:45 PM63 °FBroken clouds.9 mph52%30.16 "Hg10 mi
12:45 PM68 °FPartly sunny.No wind40%30.22 "Hg10 mi
11:50 AM64 °FOvercast.No wind49%29.95 "Hg10 mi
10:47 AM63 °FOvercast.No wind56%30.28 "Hg10 mi
9:46 AM55 °FPartly sunny.No wind67%30.28 "Hg10 mi
8:50 AM52 °FPartly sunny.No wind77%30.01 "Hg10 mi
Weather by CustomWeather, © 2014

See weather overviewHow to use our weather pages